Weather in Hà Tĩnh

Vietnam     18°20′27″N   105°54′03″E
temp.,
°C
wind,
m/s
gust,
m/s
humid.,
%
clouds,
%
prec.,
mm/h
press.,
hPa
HPBL,
m
8 may, sat
sat801:00+24ssw119128 0.0 100922
04:00+23s119115 0.0 100923
07:00+26se117763 0.0 1011165
10:00+31ne21575 0.0 1011759
13:00+32ne42590 0.0 1008843
16:00+31ene346430 0.0 1005532
19:00+26ese22895 0.6 100755
22:00+24ssw22916 0.1 100867
9 may, sun
sun901:00+24sw11905 0.1 100729
04:00+24se118986 0.1 100629
07:00+26sse128161 0.1 1008121
10:00+32nnw226046 0.0 1008788
13:00+33nne43618 0.0 1006662
16:00+32ne226221 0.0 1004559
19:00+27ese228433 0.1 100554
22:00+26sw23875 0.4 100765
10 may, mon
mon1001:00+25ssw11885 0.4 100420
04:00+24s11885 0.0 100422
07:00+27ssw117543 0.0 1006131
10:00+35sw14455 0.0 10061157
13:00+36nne354739 0.0 10031359
16:00+33e225725 0.0 1002394
19:00+29sse35722 0.0 1003110
22:00+27s26830 0.0 1005130
11 may, tue
tue1101:00+27sse24805 0.0 100378
04:00+26s227440 0.0 100340
07:00+28s246999 0.0 1005129
10:00+36sw47404 0.0 10051629
13:00+38nnw253812 0.0 10022224
16:00+37wnw15421 0.0 10011183
19:00+30se25695 0.0 1003105
22:00+27s23825 0.0 100481
12 may, wed
wed1201:00+27s22775 0.0 100333
04:00+27s227184 0.0 100345
07:00+30ssw246410 0.0 1005169
10:00+37wsw24405 0.0 10051421
13:00+36nne454641 0.0 10021273
16:00+32ese35629 0.0 1000157
19:00+30se23730 0.0 100257
22:00+28sse22740 0.0 100338